Regional Weather Roundup
Issued by NWS Newport/Morehead, NC

Current Version | Previous Version | Graphics & Text | Print | Product List | Glossary Off
Versions: 1 2 3 4 5 6 7 8 9 10 11 12 13 14 15 16 17 18 19 20 21 22 23 24 25 26 27 28 29 30 31 32 33 34 35 36 37 38 39 40 41 42 43 44 45 46 47 48 49 50

000
ASUS42 KMHX 280722
RWRMHX
WEATHER ROUNDUP FOR EASTERN NORTH CAROLINA
NATIONAL WEATHER SERVICE NEWPORT/MOREHEAD CITY NC
200 AM EST WED JAN 28 2015

NOTE: "FAIR" INDICATES FEW OR NO CLOUDS BELOW 12,000 FEET
WITH NO SIGNIFICANT WEATHER AND/OR OBSTRUCTIONS TO VISIBILITY

NCZ015>017-031-032-045>047-102-103-280800-
NORTH COAST

CITY           SKY/WX    TMP DP  RH WIND       PRES   REMARKS
EDENTON        CLOUDY    34  27  76 N10       29.99R
ELIZABETH CITY CLOUDY    32  22  66 NW13      29.98R
KITTY HAWK     CLOUDY    34  24  68 NW7       29.94R
MANTEO         CLOUDY    34  25  69 NW7G16    29.96R

$$

NCZ045>047-081-094-103-104-280800-
CENTRAL COAST

CITY           SKY/WX    TMP DP  RH WIND       PRES   REMARKS
FRISCO         CLOUDY    36  28  73 VRB6      29.95R
SWANQUARTER    NOT AVBL

$$

NCZ095-097-098-100-101-280800-
SOUTHERN COAST

CITY           SKY/WX    TMP DP  RH WIND       PRES   REMARKS
BEAUFORT       CLEAR     35  30  82 NW10      29.98R
CEDAR ISLAND   NOT AVBL
JACKSONVILLE   CLEAR     30  26  85 NW5       29.99R
PINEY ISLAND     N/A    N/A N/A N/A MISG      29.97R
WILMINGTON     CLEAR     30  21  69 NW8       30.00R


$$

NCZ011>013-027>030-043-044-078>080-089-090>093-098-280800-
COASTAL PLAIN

CITY           SKY/WX    TMP DP  RH WIND       PRES   REMARKS
AHOSKIE        CLOUDY    32  23  68 NW3       30.01R
CLINTON        PTCLDY    32  17  53 NW3       30.03R
ELIZABETHTOWN  CLEAR     32  14  47 N5        30.03R
GOLDSBORO      NOT AVBL
GREENVILLE     CLOUDY    32  25  74 NW6       30.02R
HAVELOCK       CLEAR     32  26  78 NW6       29.99R
KENANSVILLE    PTCLDY    31  18  60 N6        30.03R
KINSTON        CLEAR     29  26  88 NW3       30.02R
NEW BERN       CLEAR     32  26  78 NW6       30.00R
RICHLANDS      CLEAR     27  21  80 CALM      30.02R
ROCKY MOUNT    CLEAR     29  17  61 NW8       30.02R
WASHINGTON     CLOUDY    33  25  73 NW8       30.01R
WHITEVILLE     CLEAR     33  16  51 CALM      30.02R

$$

AMZ130-135-150-152-154-156-158-170-250-252-270-ANZ085-086-088-633-658-670-280800-
MARINE OBSERVATIONS

STATION/POSITION TIME  TEMP    WIND        PRES    WAVE   SWELL
                       AIR SEA DIR/SP/G            HT/PER HT/PER
                 (UTC) (F)     (DEG/KT/KT) (MB)    (FT/S) (FT/S)
CHESAPEAKE LIGHT 0700   33     340/ 26/ 28 1014.2
64 E VA BEACH    0700   37 52  330/ 23/ 29 1011.6   11/12   8/12
DUCK             0700   34 42  330/ 19/ 21 1013.3
2 E DUCK         0700      43                N/A     7/13   5/13
10 NE DUCK       0700      45                N/A    10/14   7/14
OREGON INLET     0700   35 44  320/ 13/ 18 1014.1
13E OREGON INLT  0700      46                N/A    10/13   8/13
HATTERAS CG      0700   38 47  340/ 18/ 21 1014.3
DIAMOND BUOY     0700   40 58  340/ 19/ 25 1013.0    9/14   8/14
17 S OCRACOKE    NOT AVBL
CAPE LOOKOUT     0700   37     330/ 12/ 14 1014.7
BEAUFORT LAB     0700   35 48  330/  6/  8 1014.1
27 SE WRIGHTSVLE NOT AVBL
5 SE WRIGHTSVLE  0700   40 53  350/ 19/ 23 1015.2
225 S CAPE HAT   0624   53 71  310/ 14/ 25 1012.0   11/12  10/12
41 SE CHARLESTON 0700   50 67  330/ 19/ 23 1015.4    4/ 4   2/11

$$


USA.gov is the U.S. government's official web portal to all federal, state and local government web resources and services.